#datetime,building,power
2022-12-23T00:00:00,brk,10.70
2022-12-23T00:01:00,brk,10.64
2022-12-23T00:02:00,brk,10.67
2022-12-23T00:03:00,brk,10.70
2022-12-23T00:04:00,brk,10.82
2022-12-23T00:05:00,brk,10.77
2022-12-23T00:06:00,brk,11.46
2022-12-23T00:07:00,brk,11.64
2022-12-23T00:08:00,brk,11.53
2022-12-23T00:09:00,brk,11.51
2022-12-23T00:10:00,brk,11.55
2022-12-23T00:11:00,brk,11.49
2022-12-23T00:12:00,brk,10.70
2022-12-23T00:13:00,brk,10.72
2022-12-23T00:14:00,brk,10.74
2022-12-23T00:15:00,brk,10.75
2022-12-23T00:16:00,brk,10.77
2022-12-23T00:17:00,brk,10.75
2022-12-23T00:18:00,brk,10.81
2022-12-23T00:19:00,brk,10.80
2022-12-23T00:20:00,brk,10.92
2022-12-23T00:21:00,brk,10.98
2022-12-23T00:22:00,brk,11.66
2022-12-23T00:23:00,brk,11.69
2022-12-23T00:24:00,brk,11.54
2022-12-23T00:25:00,brk,11.52
2022-12-23T00:26:00,brk,11.55
2022-12-23T00:27:00,brk,11.71
2022-12-23T00:28:00,brk,11.67
2022-12-23T00:29:00,brk,11.55
2022-12-23T00:30:00,brk,10.85
2022-12-23T00:31:00,brk,10.80
2022-12-23T00:32:00,brk,10.78
2022-12-23T00:33:00,brk,10.81
2022-12-23T00:34:00,brk,10.85
2022-12-23T00:35:00,brk,10.82
2022-12-23T00:36:00,brk,10.80
2022-12-23T00:37:00,brk,10.81
2022-12-23T00:38:00,brk,10.86
2022-12-23T00:39:00,brk,10.89
2022-12-23T00:40:00,brk,11.49
2022-12-23T00:41:00,brk,11.53
2022-12-23T00:42:00,brk,11.46
2022-12-23T00:43:00,brk,11.45
2022-12-23T00:44:00,brk,11.37
2022-12-23T00:45:00,brk,11.49
2022-12-23T00:46:00,brk,11.44
2022-12-23T00:47:00,brk,10.79
2022-12-23T00:48:00,brk,10.79
2022-12-23T00:49:00,brk,10.81
2022-12-23T00:50:00,brk,10.68
2022-12-23T00:51:00,brk,10.72
2022-12-23T00:52:00,brk,10.84
2022-12-23T00:53:00,brk,10.88
2022-12-23T00:54:00,brk,10.81
2022-12-23T00:55:00,brk,10.76
2022-12-23T00:56:00,brk,10.84
2022-12-23T00:57:00,brk,11.42
2022-12-23T00:58:00,brk,11.48
2022-12-23T00:59:00,brk,11.45
2022-12-23T01:00:00,brk,11.47
2022-12-23T01:01:00,brk,11.44
2022-12-23T01:02:00,brk,11.44
2022-12-23T01:03:00,brk,10.72
2022-12-23T01:04:00,brk,10.81
2022-12-23T01:05:00,brk,10.79
2022-12-23T01:06:00,brk,10.79
2022-12-23T01:07:00,brk,10.80
2022-12-23T01:08:00,brk,10.80
2022-12-23T01:09:00,brk,10.70
2022-12-23T01:10:00,brk,10.66
2022-12-23T01:11:00,brk,10.65
2022-12-23T01:12:00,brk,10.65
2022-12-23T01:13:00,brk,10.61
2022-12-23T01:14:00,brk,11.25
2022-12-23T01:15:00,brk,11.27
2022-12-23T01:16:00,brk,11.43
2022-12-23T01:17:00,brk,11.37
2022-12-23T01:18:00,brk,11.41
2022-12-23T01:19:00,brk,11.41
2022-12-23T01:20:00,brk,11.34
2022-12-23T01:21:00,brk,10.70
2022-12-23T01:22:00,brk,10.68
2022-12-23T01:23:00,brk,10.78
2022-12-23T01:24:00,brk,10.93
2022-12-23T01:25:00,brk,10.88
2022-12-23T01:26:00,brk,10.96
2022-12-23T01:27:00,brk,10.94
2022-12-23T01:28:00,brk,11.72
2022-12-23T01:29:00,brk,11.65
2022-12-23T01:30:00,brk,11.69
2022-12-23T01:31:00,brk,11.64
2022-12-23T01:32:00,brk,11.74
2022-12-23T01:33:00,brk,11.69
2022-12-23T01:34:00,brk,11.68
2022-12-23T01:35:00,brk,11.78
2022-12-23T01:36:00,brk,11.76
2022-12-23T01:37:00,brk,11.79
2022-12-23T01:38:00,brk,11.78
2022-12-23T01:39:00,brk,11.83
2022-12-23T01:40:00,brk,11.80
2022-12-23T01:41:00,brk,11.21
2022-12-23T01:42:00,brk,11.09
2022-12-23T01:43:00,brk,10.96
2022-12-23T01:44:00,brk,11.00
2022-12-23T01:45:00,brk,10.95
2022-12-23T01:46:00,brk,11.55
2022-12-23T01:47:00,brk,11.66
2022-12-23T01:48:00,brk,11.64
2022-12-23T01:49:00,brk,11.69
2022-12-23T01:50:00,brk,11.69
2022-12-23T01:51:00,brk,10.98
2022-12-23T01:52:00,brk,10.75
2022-12-23T01:53:00,brk,10.72
2022-12-23T01:54:00,brk,10.74
2022-12-23T01:55:00,brk,10.69
2022-12-23T01:56:00,brk,10.64
2022-12-23T01:57:00,brk,10.75
2022-12-23T01:58:00,brk,10.75
2022-12-23T01:59:00,brk,10.70
2022-12-23T02:00:00,brk,10.79
2022-12-23T02:01:00,brk,10.76
2022-12-23T02:02:00,brk,10.80
2022-12-23T02:03:00,brk,10.84
2022-12-23T02:04:00,brk,10.81
2022-12-23T02:05:00,brk,10.70
2022-12-23T02:06:00,brk,10.71
2022-12-23T02:07:00,brk,10.70
2022-12-23T02:08:00,brk,10.66
2022-12-23T02:09:00,brk,10.63
2022-12-23T02:10:00,brk,10.66
2022-12-23T02:11:00,brk,10.68
2022-12-23T02:12:00,brk,11.38
2022-12-23T02:13:00,brk,11.39
2022-12-23T02:14:00,brk,11.37
2022-12-23T02:15:00,brk,11.34
2022-12-23T02:16:00,brk,11.37
2022-12-23T02:17:00,brk,11.51
2022-12-23T02:18:00,brk,10.99
2022-12-23T02:19:00,brk,10.94
2022-12-23T02:20:00,brk,10.94
2022-12-23T02:21:00,brk,10.86
2022-12-23T02:22:00,brk,10.87
2022-12-23T02:23:00,brk,10.95
2022-12-23T02:24:00,brk,10.88
2022-12-23T02:25:00,brk,10.90
2022-12-23T02:26:00,brk,10.88
2022-12-23T02:27:00,brk,10.87
2022-12-23T02:28:00,brk,10.88
2022-12-23T02:29:00,brk,10.89
2022-12-23T02:30:00,brk,11.51
2022-12-23T02:31:00,brk,11.63
2022-12-23T02:32:00,brk,11.59
2022-12-23T02:33:00,brk,11.55
2022-12-23T02:34:00,brk,11.48
2022-12-23T02:35:00,brk,11.48
2022-12-23T02:36:00,brk,10.80
2022-12-23T02:37:00,brk,10.92
2022-12-23T02:38:00,brk,10.90
2022-12-23T02:39:00,brk,11.04
2022-12-23T02:40:00,brk,11.03
2022-12-23T02:41:00,brk,10.86
2022-12-23T02:42:00,brk,10.87
2022-12-23T02:43:00,brk,10.82
2022-12-23T02:44:00,brk,10.88
2022-12-23T02:45:00,brk,10.87
2022-12-23T02:46:00,brk,10.92
2022-12-23T02:47:00,brk,11.64
2022-12-23T02:48:00,brk,11.53
2022-12-23T02:49:00,brk,11.62
2022-12-23T02:50:00,brk,11.52
2022-12-23T02:51:00,brk,11.38
2022-12-23T02:52:00,brk,11.30
2022-12-23T02:53:00,brk,11.29
2022-12-23T02:54:00,brk,10.60
2022-12-23T02:55:00,brk,10.60
2022-12-23T02:56:00,brk,10.84
2022-12-23T02:57:00,brk,10.76
2022-12-23T02:58:00,brk,10.70
2022-12-23T02:59:00,brk,10.73
2022-12-23T03:00:00,brk,10.78
2022-12-23T03:01:00,brk,10.77
2022-12-23T03:02:00,brk,10.71
2022-12-23T03:03:00,brk,10.74
2022-12-23T03:04:00,brk,11.34
2022-12-23T03:05:00,brk,11.30
2022-12-23T03:06:00,brk,11.33
2022-12-23T03:07:00,brk,12.01
2022-12-23T03:08:00,brk,11.33
2022-12-23T03:09:00,brk,11.33
2022-12-23T03:10:00,brk,10.62
2022-12-23T03:11:00,brk,10.58
2022-12-23T03:12:00,brk,10.57
2022-12-23T03:13:00,brk,10.63
2022-12-23T03:14:00,brk,10.67
2022-12-23T03:15:00,brk,10.72
2022-12-23T03:16:00,brk,10.71
2022-12-23T03:17:00,brk,10.76
2022-12-23T03:18:00,brk,10.67
2022-12-23T03:19:00,brk,10.70
2022-12-23T03:20:00,brk,10.62
2022-12-23T03:21:00,brk,10.54
2022-12-23T03:22:00,brk,11.30
2022-12-23T03:23:00,brk,11.32
2022-12-23T03:24:00,brk,11.31
2022-12-23T03:25:00,brk,11.36
2022-12-23T03:26:00,brk,11.42
2022-12-23T03:27:00,brk,11.43
2022-12-23T03:28:00,brk,10.70
2022-12-23T03:29:00,brk,10.71
2022-12-23T03:30:00,brk,10.67
2022-12-23T03:31:00,brk,10.68
2022-12-23T03:32:00,brk,10.64
2022-12-23T03:33:00,brk,10.66
2022-12-23T03:34:00,brk,10.83
2022-12-23T03:35:00,brk,10.90
2022-12-23T03:36:00,brk,10.89
2022-12-23T03:37:00,brk,10.85
2022-12-23T03:38:00,brk,11.67
2022-12-23T03:39:00,brk,11.42
2022-12-23T03:40:00,brk,11.48
2022-12-23T03:41:00,brk,11.31
2022-12-23T03:42:00,brk,11.43
2022-12-23T03:43:00,brk,11.40
2022-12-23T03:44:00,brk,11.46
2022-12-23T03:45:00,brk,10.77
2022-12-23T03:46:00,brk,10.70
2022-12-23T03:47:00,brk,10.58
2022-12-23T03:48:00,brk,10.56
2022-12-23T03:49:00,brk,10.59
2022-12-23T03:50:00,brk,10.58
2022-12-23T03:51:00,brk,10.65
2022-12-23T03:52:00,brk,10.66
2022-12-23T03:53:00,brk,10.73
2022-12-23T03:54:00,brk,10.73
2022-12-23T03:55:00,brk,10.77
2022-12-23T03:56:00,brk,10.79
2022-12-23T03:57:00,brk,11.48
2022-12-23T03:58:00,brk,11.36
2022-12-23T03:59:00,brk,11.36
2022-12-23T04:00:00,brk,11.34
2022-12-23T04:01:00,brk,11.33
2022-12-23T04:02:00,brk,11.33
2022-12-23T04:03:00,brk,11.39
2022-12-23T04:04:00,brk,10.69
2022-12-23T04:05:00,brk,10.71
2022-12-23T04:06:00,brk,10.65
2022-12-23T04:07:00,brk,10.68
2022-12-23T04:08:00,brk,10.72
2022-12-23T04:09:00,brk,10.75
2022-12-23T04:10:00,brk,10.79
2022-12-23T04:11:00,brk,10.95
2022-12-23T04:12:00,brk,10.99
2022-12-23T04:13:00,brk,10.72
2022-12-23T04:14:00,brk,10.91
2022-12-23T04:15:00,brk,11.50
2022-12-23T04:16:00,brk,11.36
2022-12-23T04:17:00,brk,11.33
2022-12-23T04:18:00,brk,11.30
2022-12-23T04:19:00,brk,11.30
2022-12-23T04:20:00,brk,11.39
2022-12-23T04:21:00,brk,11.51
2022-12-23T04:22:00,brk,10.89
2022-12-23T04:23:00,brk,10.88
2022-12-23T04:24:00,brk,10.90
2022-12-23T04:25:00,brk,10.83
2022-12-23T04:26:00,brk,10.81
2022-12-23T04:27:00,brk,10.81
2022-12-23T04:28:00,brk,10.81
2022-12-23T04:29:00,brk,10.85
2022-12-23T04:30:00,brk,10.93
2022-12-23T04:31:00,brk,10.95
2022-12-23T04:32:00,brk,10.95
2022-12-23T04:33:00,brk,11.54
2022-12-23T04:34:00,brk,11.59
2022-12-23T04:35:00,brk,11.48
2022-12-23T04:36:00,brk,11.47
2022-12-23T04:37:00,brk,11.41
2022-12-23T04:38:00,brk,11.40
2022-12-23T04:39:00,brk,10.78
2022-12-23T04:40:00,brk,10.79
2022-12-23T04:41:00,brk,10.80
2022-12-23T04:42:00,brk,10.78
2022-12-23T04:43:00,brk,10.62
2022-12-23T04:44:00,brk,10.64
2022-12-23T04:45:00,brk,10.55
2022-12-23T04:46:00,brk,10.54
2022-12-23T04:47:00,brk,10.55
2022-12-23T04:48:00,brk,10.54
2022-12-23T04:49:00,brk,10.65
2022-12-23T04:50:00,brk,10.74
2022-12-23T04:51:00,brk,11.39
2022-12-23T04:52:00,brk,11.39
2022-12-23T04:53:00,brk,11.39
2022-12-23T04:54:00,brk,11.29
2022-12-23T04:55:00,brk,11.29
2022-12-23T04:56:00,brk,11.27
2022-12-23T04:57:00,brk,11.28
2022-12-23T04:58:00,brk,11.06
2022-12-23T04:59:00,brk,10.64
2022-12-23T05:00:00,brk,10.69
2022-12-23T05:01:00,brk,10.59
2022-12-23T05:02:00,brk,10.49
2022-12-23T05:03:00,brk,10.61
2022-12-23T05:04:00,brk,10.59
2022-12-23T05:05:00,brk,10.59
2022-12-23T05:06:00,brk,10.59
2022-12-23T05:07:00,brk,10.65
2022-12-23T05:08:00,brk,11.41
2022-12-23T05:09:00,brk,11.43
2022-12-23T05:10:00,brk,11.54
2022-12-23T05:11:00,brk,11.53
2022-12-23T05:12:00,brk,11.45
2022-12-23T05:13:00,brk,11.39
2022-12-23T05:14:00,brk,11.38
2022-12-23T05:15:00,brk,10.59
2022-12-23T05:16:00,brk,10.63
2022-12-23T05:17:00,brk,10.71
2022-12-23T05:18:00,brk,10.67
2022-12-23T05:19:00,brk,10.81
2022-12-23T05:20:00,brk,10.74
2022-12-23T05:21:00,brk,10.78
2022-12-23T05:22:00,brk,10.80
2022-12-23T05:23:00,brk,10.78
2022-12-23T05:24:00,brk,10.54
2022-12-23T05:25:00,brk,10.70
2022-12-23T05:26:00,brk,12.66
2022-12-23T05:27:00,brk,11.49
2022-12-23T05:28:00,brk,11.52
2022-12-23T05:29:00,brk,11.67
2022-12-23T05:30:00,brk,11.66
2022-12-23T05:31:00,brk,11.34
2022-12-23T05:32:00,brk,11.46
2022-12-23T05:33:00,brk,10.85
2022-12-23T05:34:00,brk,10.78
2022-12-23T05:35:00,brk,10.99
2022-12-23T05:36:00,brk,11.16
2022-12-23T05:37:00,brk,11.07
2022-12-23T05:38:00,brk,11.07
2022-12-23T05:39:00,brk,11.04
2022-12-23T05:40:00,brk,10.67
2022-12-23T05:41:00,brk,10.57
2022-12-23T05:42:00,brk,10.50
2022-12-23T05:43:00,brk,10.52
2022-12-23T05:44:00,brk,10.51
2022-12-23T05:45:00,brk,10.69
2022-12-23T05:46:00,brk,11.34
2022-12-23T05:47:00,brk,11.39
2022-12-23T05:48:00,brk,11.33
2022-12-23T05:49:00,brk,11.31
2022-12-23T05:50:00,brk,11.28
2022-12-23T05:51:00,brk,11.23
2022-12-23T05:52:00,brk,11.18
2022-12-23T05:53:00,brk,10.54
2022-12-23T05:54:00,brk,10.59
2022-12-23T05:55:00,brk,10.57
2022-12-23T05:56:00,brk,10.59
2022-12-23T05:57:00,brk,10.50
2022-12-23T05:58:00,brk,10.66
2022-12-23T05:59:00,brk,10.69
2022-12-23T06:00:00,brk,10.66
2022-12-23T06:01:00,brk,10.65
2022-12-23T06:02:00,brk,10.74
2022-12-23T06:03:00,brk,10.70
2022-12-23T06:04:00,brk,11.51
2022-12-23T06:05:00,brk,11.51
2022-12-23T06:06:00,brk,11.53
2022-12-23T06:07:00,brk,11.57
2022-12-23T06:08:00,brk,11.57
2022-12-23T06:09:00,brk,11.46
2022-12-23T06:10:00,brk,11.46
2022-12-23T06:11:00,brk,10.72
2022-12-23T06:12:00,brk,10.83
2022-12-23T06:13:00,brk,10.70
2022-12-23T06:14:00,brk,10.80
2022-12-23T06:15:00,brk,10.81
2022-12-23T06:16:00,brk,10.82
2022-12-23T06:17:00,brk,11.57
2022-12-23T06:18:00,brk,11.65
2022-12-23T06:19:00,brk,11.63
2022-12-23T06:20:00,brk,11.55
2022-12-23T06:21:00,brk,11.64
2022-12-23T06:22:00,brk,11.63
2022-12-23T06:23:00,brk,11.64
2022-12-23T06:24:00,brk,11.66
2022-12-23T06:25:00,brk,11.71
2022-12-23T06:26:00,brk,12.15
2022-12-23T06:27:00,brk,11.82
2022-12-23T06:28:00,brk,11.65
2022-12-23T06:29:00,brk,11.67
2022-12-23T06:30:00,brk,10.93
2022-12-23T06:31:00,brk,10.96
2022-12-23T06:32:00,brk,11.05
2022-12-23T06:33:00,brk,11.68
2022-12-23T06:34:00,brk,11.60
2022-12-23T06:35:00,brk,11.66
2022-12-23T06:36:00,brk,11.64
2022-12-23T06:37:00,brk,11.58
2022-12-23T06:38:00,brk,10.92
2022-12-23T06:39:00,brk,10.89
2022-12-23T06:40:00,brk,10.85
2022-12-23T06:41:00,brk,10.94
2022-12-23T06:42:00,brk,11.50
2022-12-23T06:43:00,brk,11.52
2022-12-23T06:44:00,brk,11.52
2022-12-23T06:45:00,brk,11.60
2022-12-23T06:46:00,brk,11.49
2022-12-23T06:47:00,brk,10.73
2022-12-23T06:48:00,brk,10.74
2022-12-23T06:49:00,brk,10.75
2022-12-23T06:50:00,brk,10.83
2022-12-23T06:51:00,brk,11.49
2022-12-23T06:52:00,brk,11.47
2022-12-23T06:53:00,brk,11.39
2022-12-23T06:54:00,brk,11.38
2022-12-23T06:55:00,brk,11.38
2022-12-23T06:56:00,brk,10.73
2022-12-23T06:57:00,brk,10.59
2022-12-23T06:58:00,brk,10.68
2022-12-23T06:59:00,brk,10.68
2022-12-23T07:00:00,brk,11.40
2022-12-23T07:01:00,brk,11.47
2022-12-23T07:02:00,brk,10.71
2022-12-23T20:45:00,brk,11.25
2022-12-23T20:46:00,brk,11.25
2022-12-23T20:47:00,brk,11.29
2022-12-23T20:48:00,brk,10.56
2022-12-23T20:49:00,brk,10.62
2022-12-23T20:50:00,brk,10.64
2022-12-23T20:51:00,brk,10.68
2022-12-23T20:52:00,brk,10.81
2022-12-23T20:53:00,brk,10.73
2022-12-23T20:54:00,brk,11.36
2022-12-23T20:55:00,brk,11.29
2022-12-23T20:56:00,brk,11.33
2022-12-23T20:57:00,brk,11.43
2022-12-23T20:58:00,brk,11.47
2022-12-23T20:59:00,brk,12.20
2022-12-23T21:00:00,brk,11.82
2022-12-23T21:01:00,brk,11.78
2022-12-23T21:02:00,brk,11.78
2022-12-23T21:03:00,brk,11.78
2022-12-23T21:04:00,brk,11.72
2022-12-23T21:05:00,brk,11.72
2022-12-23T21:06:00,brk,11.72
2022-12-23T21:07:00,brk,11.80
2022-12-23T21:08:00,brk,11.75
2022-12-23T21:09:00,brk,11.75
2022-12-23T21:10:00,brk,11.89
2022-12-23T21:11:00,brk,11.19
2022-12-23T21:12:00,brk,11.17
2022-12-23T21:13:00,brk,11.24
2022-12-23T21:14:00,brk,11.23
2022-12-23T21:15:00,brk,11.80
2022-12-23T21:16:00,brk,11.74
2022-12-23T21:17:00,brk,11.57
2022-12-23T21:18:00,brk,11.64
2022-12-23T21:19:00,brk,11.52
2022-12-23T21:20:00,brk,11.48
2022-12-23T21:21:00,brk,10.63
2022-12-23T21:22:00,brk,10.59
2022-12-23T21:23:00,brk,10.66
2022-12-23T21:24:00,brk,10.66
2022-12-23T21:25:00,brk,10.67
2022-12-23T21:26:00,brk,10.54
2022-12-23T21:27:00,brk,10.70
2022-12-23T21:28:00,brk,10.80
2022-12-23T21:29:00,brk,10.78
2022-12-23T21:30:00,brk,10.81
2022-12-23T21:31:00,brk,10.82
2022-12-23T21:32:00,brk,11.38
2022-12-23T21:33:00,brk,11.39
2022-12-23T21:34:00,brk,11.36
2022-12-23T21:35:00,brk,11.42
2022-12-23T21:36:00,brk,11.37
2022-12-23T21:37:00,brk,11.49
2022-12-23T21:38:00,brk,11.47
2022-12-23T21:39:00,brk,11.42
2022-12-23T21:40:00,brk,10.64
2022-12-23T21:41:00,brk,10.75
2022-12-23T21:42:00,brk,10.83
2022-12-23T21:43:00,brk,10.84
2022-12-23T21:44:00,brk,10.91
2022-12-23T21:45:00,brk,10.85
2022-12-23T21:46:00,brk,11.43
2022-12-23T21:47:00,brk,11.48
2022-12-23T21:48:00,brk,11.69
2022-12-23T21:49:00,brk,11.56
2022-12-23T21:50:00,brk,11.53
2022-12-23T21:51:00,brk,11.64
2022-12-23T21:52:00,brk,11.59
2022-12-23T21:53:00,brk,11.49
2022-12-23T21:54:00,brk,10.79
2022-12-23T21:55:00,brk,10.95
2022-12-23T21:56:00,brk,10.86
2022-12-23T21:57:00,brk,10.96
2022-12-23T21:58:00,brk,11.63
2022-12-23T21:59:00,brk,11.68
2022-12-23T22:00:00,brk,11.63
2022-12-23T22:01:00,brk,11.66
2022-12-23T22:02:00,brk,11.69
2022-12-23T22:03:00,brk,11.54
2022-12-23T22:04:00,brk,11.49
2022-12-23T22:05:00,brk,11.57
2022-12-23T22:06:00,brk,10.86
2022-12-23T22:07:00,brk,10.94
2022-12-23T22:08:00,brk,10.98
2022-12-23T22:09:00,brk,10.93
2022-12-23T22:10:00,brk,10.80
2022-12-23T22:11:00,brk,12.91
2022-12-23T22:12:00,brk,11.41
2022-12-23T22:13:00,brk,11.44
2022-12-23T22:14:00,brk,11.44
2022-12-23T22:15:00,brk,11.44
2022-12-23T22:16:00,brk,11.27
2022-12-23T22:17:00,brk,11.26
2022-12-23T22:18:00,brk,11.26
2022-12-23T22:19:00,brk,10.65
2022-12-23T22:20:00,brk,10.71
2022-12-23T22:21:00,brk,10.71
2022-12-23T22:22:00,brk,10.66
2022-12-23T22:23:00,brk,10.73
2022-12-23T22:24:00,brk,11.53
2022-12-23T22:25:00,brk,11.51
2022-12-23T22:26:00,brk,11.50
2022-12-23T22:27:00,brk,11.51
2022-12-23T22:28:00,brk,11.51
2022-12-23T22:29:00,brk,11.44
2022-12-23T22:30:00,brk,11.50
2022-12-23T22:31:00,brk,11.49
2022-12-23T22:32:00,brk,10.79
2022-12-23T22:33:00,brk,10.86
2022-12-23T22:34:00,brk,10.83
2022-12-23T22:35:00,brk,10.72
2022-12-23T22:36:00,brk,10.78
2022-12-23T22:37:00,brk,11.38
2022-12-23T22:38:00,brk,11.36
2022-12-23T22:39:00,brk,11.40
2022-12-23T22:40:00,brk,11.39
2022-12-23T22:41:00,brk,11.38
2022-12-23T22:42:00,brk,11.44
2022-12-23T22:43:00,brk,11.49
2022-12-23T22:44:00,brk,11.38
2022-12-23T22:45:00,brk,10.68
2022-12-23T22:46:00,brk,10.73
2022-12-23T22:47:00,brk,10.68
2022-12-23T22:48:00,brk,10.62
2022-12-23T22:49:00,brk,11.04
2022-12-23T22:50:00,brk,11.32
2022-12-23T22:51:00,brk,11.56
2022-12-23T22:52:00,brk,11.54
2022-12-23T22:53:00,brk,11.53
2022-12-23T22:54:00,brk,11.48
2022-12-23T22:55:00,brk,11.43
2022-12-23T22:56:00,brk,11.46
2022-12-23T22:57:00,brk,11.44
2022-12-23T22:58:00,brk,11.02
2022-12-23T22:59:00,brk,11.03
2022-12-23T23:00:00,brk,11.10
2022-12-23T23:01:00,brk,11.02
2022-12-23T23:02:00,brk,11.04
2022-12-23T23:03:00,brk,11.66
2022-12-23T23:04:00,brk,11.62
2022-12-23T23:05:00,brk,11.65
2022-12-23T23:06:00,brk,11.53
2022-12-23T23:07:00,brk,11.56
2022-12-23T23:08:00,brk,11.53
2022-12-23T23:09:00,brk,11.57
2022-12-23T23:10:00,brk,11.52
2022-12-23T23:11:00,brk,10.74
2022-12-23T23:12:00,brk,10.79
2022-12-23T23:13:00,brk,10.79
2022-12-23T23:14:00,brk,10.79
2022-12-23T23:15:00,brk,11.47
2022-12-23T23:16:00,brk,11.33
2022-12-23T23:17:00,brk,11.35
2022-12-23T23:18:00,brk,11.31
2022-12-23T23:19:00,brk,11.47
2022-12-23T23:20:00,brk,11.44
2022-12-23T23:21:00,brk,11.45
2022-12-23T23:22:00,brk,11.43
2022-12-23T23:23:00,brk,10.75
2022-12-23T23:24:00,brk,10.70
2022-12-23T23:25:00,brk,10.63
2022-12-23T23:26:00,brk,10.66
2022-12-23T23:27:00,brk,10.78
2022-12-23T23:28:00,brk,11.38
2022-12-23T23:29:00,brk,11.37
2022-12-23T23:30:00,brk,11.27
2022-12-23T23:31:00,brk,11.26
2022-12-23T23:32:00,brk,11.23
2022-12-23T23:33:00,brk,11.25
2022-12-23T23:34:00,brk,11.29
2022-12-23T23:35:00,brk,11.29
2022-12-23T23:36:00,brk,10.61
2022-12-23T23:37:00,brk,10.80
2022-12-23T23:38:00,brk,10.80
2022-12-23T23:39:00,brk,10.95
2022-12-23T23:40:00,brk,10.84
2022-12-23T23:41:00,brk,11.51
2022-12-23T23:42:00,brk,11.42
2022-12-23T23:43:00,brk,11.40
2022-12-23T23:44:00,brk,11.41
2022-12-23T23:45:00,brk,11.51
2022-12-23T23:46:00,brk,11.53
2022-12-23T23:47:00,brk,11.49
2022-12-23T23:48:00,brk,11.47
2022-12-23T23:49:00,brk,10.68
2022-12-23T23:50:00,brk,10.73
2022-12-23T23:51:00,brk,10.70
2022-12-23T23:52:00,brk,10.70
2022-12-23T23:53:00,brk,10.68
2022-12-23T23:54:00,brk,11.40
2022-12-23T23:55:00,brk,11.40
2022-12-23T23:56:00,brk,11.51
2022-12-23T23:57:00,brk,11.43
2022-12-23T23:58:00,brk,11.45
